SIRION PATHFINDER-2

Last updated on Sun Dec 14 2025 00:03:50 GMT+0000 (Coordinated Universal Time)

1 43759U 18099B 25347.07643688 .00009072 00000+0 52646-3 0 9991 2 43759 97.4549 35.5420 0008166 216.3008 143.7669 15.12340252384475
UTC large
Height (km)
Speed (km/s)
/
Latitude / Longitude
Inclination (degrees)
Orbital Period (minutes)
Azimuth
Elevation
Range (km)
Doppler Factor

Next 0 passes for location: London (51.5072 / 0.1276)

Sorry there are no passes over London.